Regional Weather Roundup
Issued by NWS

Home | Current Version | Previous Version | Text Only | Print | Product List | Glossary On
Versions: 1 2 3 4 5 6 7 8 9 10 11 12 13 14 15 16 17 18 19 20 21 22 23 24 25 26 27 28 29 30 31 32 33 34 35 36 37 38 39 40 41 42 43 44 45 46 47 48 49 50
000
ASUS43 KLSX 140307
RWRMO

WEATHER SUMMARY FOR MISSOURI
NATIONAL WEATHER SERVICE SPRINGFIELD MO
1000 PM CDT SUN JUL 13 2014

NOTE: "FAIR" INDICATES FEW OR NO CLOUDS BELOW 12,000 FEET WITH NO
       SIGNIFICANT WEATHER AND/OR OBSTRUCTIONS TO VISIBILITY.
       CURRENT SKY AND/OR WEATHER CONDITIONS ARE NOT AVAILABLE FOR
       CHILLICOTHE AND FARMINGTON.

MOZ001>031-035>038-043-044-053-054-140400-
...NORTHERN AND WESTERN MISSOURI...

CITY           SKY/WX    TMP DP  RH WIND       PRES   REMARKS
KANSAS CTY INT PTCLDY    78  68  71 W5        29.99R
KANSAS C DTWN  CLEAR     80  68  66 NW3       29.97R
LEE`S SUMMIT   PTCLDY    74  69  85 CALM      29.98R
ST JOSEPH      CLEAR     74  72  93 CALM      29.98R
CHILLICOTHE      N/A     74  71  91 CALM      29.97R
KIRKSVILLE     CLEAR     72  69  90 CALM      29.96S

$$
MOZ066>068-077>081-088>096-101>105-140400-
...SOUTHWEST MISSOURI...

CITY           SKY/WX    TMP DP  RH WIND       PRES   REMARKS
SPRINGFIELD    PTCLDY    78  72  81 NW8       29.97R
JOPLIN         CLOUDY    80  73  79 N7        29.98R

$$
MOZ032>034-039>042-045>050-055>058-069>072-140400-
...CENTRAL MISSOURI...

CITY           SKY/WX    TMP DP  RH WIND       PRES   REMARKS
COLUMBIA       MOCLDY    73  73 100 NW3       29.95S
JEFFERSON CITY MOCLDY    76  73  91 CALM      29.94R
ROLLA          TSTM      72  69  90 NW7       29.96R FOG
SEDALIA        CLEAR     73  71  93 SW3       29.97R
WHITEMAN AFB   CLEAR     72  66  83 SW5       29.96R
OSAGE BEACH    CLOUDY    73  70  88 CALM      29.96S

$$
MOZ051-052-059>065-140400-
...EAST CENTRAL MISSOURI...

CITY           SKY/WX    TMP DP  RH WIND       PRES   REMARKS
ST LOUIS INTL  CLOUDY    78  73  84 CALM      29.93F
SPIRIT OF STL  CLOUDY    75  73  93 CALM      29.91F
ST CHARLES     CLOUDY    76  71  85 CALM      29.91F

$$
MOZ072>076-082>087-097>100-106>115-140400-
...SOUTH CENTRAL AND SOUTHEAST MISSOURI...

CITY           SKY/WX    TMP DP  RH WIND       PRES   REMARKS
CAPE GIRARDEAU PTCLDY    81  75  82 S3        29.94R
FARMINGTON     CLOUDY    73  70  88 CALM      29.97F
POPLAR BLUFF   CLEAR     83  74  74 S7        29.92S
WEST PLAINS    CLEAR     81  71  71 S8        29.98S

$$


USA.gov is the U.S. government's official web portal to all federal, state and local government web resources and services.